"Sample Date","Sample Time","Sample Value","Units","Flow Rate","Sample Interval","Number Channels","Micron Size 0","Counts/Channel 0","Micron Size 1","Counts/Channel 1","Micron Size 2","Counts/Channel 2","Micron Size 3","Counts/Channel 3","Micron Size 4","Counts/Channel 4","Micron Size 5","Counts/Channel 5","Micron Size 6","Counts/Channel 6","Micron Size 7","Counts/Channel 7","Micron Size 8","Counts/Channel 8","Micron Size 9","Counts/Channel 9","Micron Size 10","Counts/Channel 10","Micron Size 11","Counts/Channel 11","Micron Size 12","Counts/Channel 12","Micron Size 13","Counts/Channel 13","Micron Size 14","Counts/Channel 14","Micron Size 15","Counts/Channel 15","Micron Size 16","Counts/Channel 16","Micron Size 17","Counts/Channel 17","Micron Size 18","Counts/Channel 18","Micron Size 19","Counts/Channel 19","Micron Size 20","Counts/Channel 20","Micron Size 21","Counts/Channel 21","Micron Size 22","Counts/Channel 22","Micron Size 23","Counts/Channel 23","Micron Size 24","Counts/Channel 24","Micron Size 25","Counts/Channel 25","Micron Size 26","Counts/Channel 26","Micron Size 27","Counts/Channel 27","Micron Size 28","Counts/Channel 28","Micron Size 29","Counts/Channel 29","Micron Size 30","Counts/Channel 30","Micron Size 31","Counts/Channel 31"
"03/07/08","20:00:02",21646.000,"cc",28316.830,6.00,6,0.100,13786.000,0.200,5660.000,0.300,1359.000,0.500,735.000,1.000,106.000,5.000,0
"03/07/08","20:00:08",21403.000,"cc",28409.158,6.00,6,0.100,13793.000,0.200,5593.000,0.300,1162.000,0.500,730.000,1.000,125.000,5.000,0
"03/07/08","20:00:14",20755.000,"cc",28265.486,6.00,6,0.100,13456.000,0.200,5305.000,0.300,1209.000,0.500,684.000,1.000,101.000,5.000,0
"03/07/08","20:00:20",20679.000,"cc",28328.553,6.00,6,0.100,13312.000,0.200,5523.000,0.300,1137.000,0.500,618.000,1.000,89.000,5.000,0
"03/07/08","20:00:26",20595.000,"cc",28319.014,6.00,6,0.100,13198.000,0.200,5640.000,0.300,1126.000,0.500,560.000,1.000,71.000,5.000,0
"03/07/08","20:00:32",21058.000,"cc",28338.520,6.00,6,0.100,13558.000,0.200,5674.000,0.300,1106.000,0.500,647.000,1.000,73.000,5.000,0
"03/07/08","20:00:38",21499.000,"cc",28287.441,6.00,6,0.100,13751.000,0.200,5696.000,0.300,1275.000,0.500,675.000,1.000,102.000,5.000,0
"03/07/08","20:00:44",21305.000,"cc",28347.711,6.00,6,0.100,13653.000,0.200,5620.000,0.300,1251.000,0.500,685.000,1.000,96.000,5.000,0
"03/07/08","20:00:50",21276.000,"cc",28196.209,6.00,6,0.100,13785.000,0.200,5609.000,0.300,1220.000,0.500,599.000,1.000,63.000,5.000,0
"03/07/08","20:00:56",22061.000,"cc",28349.893,6.00,6,0.100,14126.000,0.200,5797.000,0.300,1327.000,0.500,736.000,1.000,75.000,5.000,0
"03/07/08","20:01:02",22176.000,"cc",28366.576,6.00,6,0.100,14354.000,0.200,5812.000,0.300,1263.000,0.500,675.000,1.000,72.000,5.000,0
"03/07/08","20:01:08",21796.000,"cc",28282.572,6.00,6,0.100,14058.000,0.200,5783.000,0.300,1221.000,0.500,656.000,1.000,78.000,5.000,0
"03/07/08","20:01:14",21592.000,"cc",28296.840,6.00,6,0.100,14004.000,0.200,5615.000,0.300,1263.000,0.500,633.000,1.000,77.000,5.000,0
"03/07/08","20:01:20",22446.000,"cc",28440.260,6.00,6,0.100,14307.000,0.200,5889.000,0.300,1415.000,0.500,733.000,1.000,102.000,5.000,0
"03/07/08","20:01:26",22191.000,"cc",28341.707,6.00,6,0.100,14207.000,0.200,5795.000,0.300,1282.000,0.500,821.000,1.000,86.000,5.000,0
"03/07/08","20:01:32",21911.000,"cc",28282.299,6.00,6,0.100,14103.000,0.200,5769.000,0.300,1259.000,0.500,694.000,1.000,86.000,5.000,0
"03/07/08","20:01:38",21645.000,"cc",28269.305,6.00,6,0.100,13955.000,0.200,5861.000,0.300,1178.000,0.500,593.000,1.000,58.000,5.000,0
"03/07/08","20:01:44",21717.000,"cc",28355.190,6.00,6,0.100,13959.000,0.200,5822.000,0.300,1193.000,0.500,642.000,1.000,101.000,5.000,0
"03/07/08","20:01:50",22106.000,"cc",28383.406,6.00,6,0.100,13886.000,0.200,5969.000,0.300,1377.000,0.500,781.000,1.000,93.000,5.000,0
"03/07/08","20:01:56",21710.000,"cc",28283.084,6.00,6,0.100,13799.000,0.200,5821.000,0.300,1277.000,0.500,717.000,1.000,96.000,5.000,0
"03/07/08","20:02:02",21258.000,"cc",28223.643,6.00,6,0.100,13637.000,0.200,5728.000,0.300,1185.000,0.500,626.000,1.000,82.000,5.000,0
"03/07/08","20:02:08",21515.000,"cc",28250.330,6.00,6,0.100,13777.000,0.200,5661.000,0.300,1250.000,0.500,747.000,1.000,80.000,5.000,0
"03/07/08","20:02:14",21171.000,"cc",28413.246,6.00,6,0.100,13592.000,0.200,5554.000,0.300,1264.000,0.500,669.000,1.000,92.000,5.000,0
"03/07/08","20:02:20",20990.000,"cc",28285.309,6.00,6,0.100,13345.000,0.200,5587.000,0.300,1226.000,0.500,740.000,1.000,92.000,5.000,0
"03/07/08","20:02:26",20832.000,"cc",28279.574,6.00,6,0.100,13431.000,0.200,5509.000,0.300,1169.000,0.500,657.000,1.000,66.000,5.000,0
"03/07/08","20:02:32",21224.000,"cc",28356.256,6.00,6,0.100,13616.000,0.200,5522.000,0.300,1265.000,0.500,706.000,1.000,115.000,5.000,0
"03/07/08","20:02:38",21575.000,"cc",28316.816,6.00,6,0.100,13752.000,0.200,5705.000,0.300,1239.000,0.500,780.000,1.000,99.000,5.000,0
"03/07/08","20:02:44",21855.000,"cc",28316.688,6.00,6,0.100,13927.000,0.200,5829.000,0.300,1310.000,0.500,703.000,1.000,86.000,5.000,0
"03/07/08","20:02:50",21361.000,"cc",28320.887,6.00,6,0.100,13789.000,0.200,5647.000,0.300,1217.000,0.500,662.000,1.000,46.000,5.000,0
"03/07/08","20:02:56",20828.000,"cc",28263.170,6.00,6,0.100,13340.000,0.200,5725.000,0.300,1133.000,0.500,570.000,1.000,60.000,5.000,0
"03/07/08","20:03:02",21314.000,"cc",28266.943,6.00,6,0.100,13698.000,0.200,5628.000,0.300,1245.000,0.500,661.000,1.000,82.000,5.000,0
"03/07/08","20:03:08",21864.000,"cc",28427.096,6.00,6,0.100,14000.000,0.200,5833.000,0.300,1229.000,0.500,697.000,1.000,105.000,5.000,0
"03/07/08","20:03:14",21207.000,"cc",28255.184,6.00,6,0.100,13699.000,0.200,5706.000,0.300,1181.000,0.500,569.000,1.000,52.000,5.000,0
"03/07/08","20:03:20",22239.000,"cc",28379.721,6.00,6,0.100,14362.000,0.200,5724.000,0.300,1340.000,0.500,724.000,1.000,89.000,5.000,0
"03/07/08","20:03:26",22242.000,"cc",28316.051,6.00,6,0.100,14259.000,0.200,5848.000,0.300,1323.000,0.500,730.000,1.000,82.000,5.000,0
"03/07/08","20:03:32",22354.000,"cc",28297.451,6.00,6,0.100,14285.000,0.200,6003.000,0.300,1266.000,0.500,726.000,1.000,74.000,5.000,0
"03/07/08","20:03:38",21741.000,"cc",28378.891,6.00,6,0.100,13964.000,0.200,5770.000,0.300,1259.000,0.500,666.000,1.000,82.000,5.000,0
"03/07/08","20:03:44",20963.000,"cc",28262.969,6.00,6,0.100,13746.000,0.200,5520.000,0.300,1108.000,0.500,533.000,1.000,56.000,5.000,0
"03/07/08","20:03:50",20690.000,"cc",28338.580,6.00,6,0.100,13415.000,0.200,5621.000,0.300,1137.000,0.500,469.000,1.000,48.000,5.000,0
"03/07/08","20:03:56",20737.000,"cc",28378.805,6.00,6,0.100,13549.000,0.200,5468.000,0.300,1128.000,0.500,544.000,1.000,48.000,5.000,0
"03/07/08","20:04:02",21278.000,"cc",28284.375,6.00,6,0.100,13688.000,0.200,5602.000,0.300,1281.000,0.500,646.000,1.000,61.000,5.000,0
"03/07/08","20:04:08",21302.000,"cc",28272.254,6.00,6,0.100,13775.000,0.200,5690.000,0.300,1200.000,0.500,568.000,1.000,69.000,5.000,0
"03/07/08","20:04:14",20978.000,"cc",28321.508,6.00,6,0.100,13572.000,0.200,5670.000,0.300,1129.000,0.500,556.000,1.000,51.000,5.000,0
"03/07/08","20:04:20",21229.000,"cc",28222.623,6.00,6,0.100,13693.000,0.200,5808.000,0.300,1138.000,0.500,539.000,1.000,51.000,5.000,0
"03/07/08","20:04:26",21642.000,"cc",28301.645,6.00,6,0.100,13963.000,0.200,5937.000,0.300,1127.000,0.500,550.000,1.000,65.000,5.000,0
"03/07/08","20:04:32",21350.000,"cc",28355.287,6.00,6,0.100,13875.000,0.200,5834.000,0.300,1106.000,0.500,483.000,1.000,52.000,5.000,0
"03/07/08","20:04:38",21020.000,"cc",28375.711,6.00,6,0.100,13575.000,0.200,5798.000,0.300,1098.000,0.500,511.000,1.000,38.000,5.000,0
"03/07/08","20:04:44",21039.000,"cc",28368.461,6.00,6,0.100,13615.000,0.200,5672.000,0.300,1166.000,0.500,529.000,1.000,57.000,5.000,0
"03/07/08","20:04:50",21226.000,"cc",28323.143,6.00,6,0.100,13767.000,0.200,5742.000,0.300,1175.000,0.500,492.000,1.000,50.000,5.000,0
"03/07/08","20:04:56",21204.000,"cc",28255.941,6.00,6,0.100,13704.000,0.200,5852.000,0.300,1133.000,0.500,479.000,1.000,36.000,5.000,0
"03/07/08","20:05:02",21196.000,"cc",28215.658,6.00,6,0.100,13956.000,0.200,5683.000,0.300,1073.000,0.500,465.000,1.000,19.000,5.000,0
"03/07/08","20:05:08",20912.000,"cc",28396.570,6.00,6,0.100,13727.000,0.200,5627.000,0.300,1095.000,0.500,431.000,1.000,32.000,5.000,0
"03/07/08","20:05:14",21494.000,"cc",28248.748,6.00,6,0.100,13825.000,0.200,5891.000,0.300,1227.000,0.500,509.000,1.000,42.000,5.000,0
"03/07/08","20:05:20",21492.000,"cc",28247.623,6.00,6,0.100,13918.000,0.200,5817.000,0.300,1146.000,0.500,540.000,1.000,71.000,5.000,0
"03/07/08","20:05:26",21898.000,"cc",28356.533,6.00,6,0.100,14210.000,0.200,5767.000,0.300,1253.000,0.500,610.000,1.000,58.000,5.000,0
"03/07/08","20:05:32",21769.000,"cc",28467.906,6.00,6,0.100,13918.000,0.200,5784.000,0.300,1300.000,0.500,673.000,1.000,94.000,5.000,0
"03/07/08","20:05:38",21906.000,"cc",28194.207,6.00,6,0.100,14133.000,0.200,5724.000,0.300,1264.000,0.500,721.000,1.000,64.000,5.000,0
"03/07/08","20:05:44",21445.000,"cc",28383.520,6.00,6,0.100,13715.000,0.200,5763.000,0.300,1265.000,0.500,638.000,1.000,64.000,5.000,0
"03/07/08","20:05:50",21156.000,"cc",28274.873,6.00,6,0.100,13904.000,0.200,5568.000,0.300,1132.000,0.500,513.000,1.000,39.000,5.000,0
"03/07/08","20:05:56",21773.000,"cc",28238.356,6.00,6,0.100,14055.000,0.200,5870.000,0.300,1220.000,0.500,577.000,1.000,51.000,5.000,0
"03/07/08","20:06:02",21445.000,"cc",28311.830,6.00,6,0.100,13902.000,0.200,5786.000,0.300,1170.000,0.500,538.000,1.000,49.000,5.000,0
"03/07/08","20:06:08",21212.000,"cc",28351.908,6.00,6,0.100,13806.000,0.200,5741.000,0.300,1119.000,0.500,497.000,1.000,49.000,5.000,0
"03/07/08","20:06:14",21400.000,"cc",28374.252,6.00,6,0.100,13986.000,0.200,5815.000,0.300,1112.000,0.500,447.000,1.000,40.000,5.000,0
"03/07/08","20:06:20",21237.000,"cc",28295.457,6.00,6,0.100,13942.000,0.200,5831.000,0.300,1103.000,0.500,339.000,1.000,22.000,5.000,0
"03/07/08","20:06:26",21077.000,"cc",28346.615,6.00,6,0.100,13829.000,0.200,5592.000,0.300,1111.000,0.500,502.000,1.000,43.000,5.000,0
"03/07/08","20:06:32",20229.000,"cc",28327.148,6.00,6,0.100,13324.000,0.200,5549.000,0.300,954.000,0.500,379.000,1.000,23.000,5.000,0
"03/07/08","20:06:38",20516.000,"cc",28274.096,6.00,6,0.100,13391.000,0.200,5730.000,0.300,994.000,0.500,376.000,1.000,25.000,5.000,0
"03/07/08","20:06:44",21234.000,"cc",28203.764,6.00,6,0.100,13895.000,0.200,5807.000,0.300,1111.000,0.500,400.000,1.000,21.000,5.000,0
"03/07/08","20:06:50",21118.000,"cc",28323.428,6.00,6,0.100,13918.000,0.200,5702.000,0.300,1058.000,0.500,410.000,1.000,30.000,5.000,0
"03/07/08","20:06:56",21121.000,"cc",28309.443,6.00,6,0.100,13835.000,0.200,5781.000,0.300,1123.000,0.500,362.000,1.000,20.000,5.000,0
"03/07/08","20:07:02",20968.000,"cc",28315.092,6.00,6,0.100,13801.000,0.200,5583.000,0.300,1107.000,0.500,451.000,1.000,26.000,5.000,0
"03/07/08","20:07:08",21236.000,"cc",28365.065,6.00,6,0.100,13821.000,0.200,5727.000,0.300,1153.000,0.500,485.000,1.000,50.000,5.000,0
"03/07/08","20:07:14",21127.000,"cc",28424.713,6.00,6,0.100,13757.000,0.200,5790.000,0.300,1059.000,0.500,474.000,1.000,47.000,5.000,0
"03/07/08","20:07:20",21732.000,"cc",28358.072,6.00,6,0.100,14111.000,0.200,5807.000,0.300,1193.000,0.500,576.000,1.000,45.000,5.000,0
"03/07/08","20:07:26",21366.000,"cc",28359.893,6.00,6,0.100,13691.000,0.200,5924.000,0.300,1204.000,0.500,492.000,1.000,55.000,5.000,0
"03/07/08","20:07:32",21488.000,"cc",28285.631,6.00,6,0.100,14016.000,0.200,5784.000,0.300,1203.000,0.500,457.000,1.000,28.000,5.000,0
"03/07/08","20:07:38",21420.000,"cc",28277.723,6.00,6,0.100,13843.000,0.200,5765.000,0.300,1182.000,0.500,577.000,1.000,53.000,5.000,0
"03/07/08","20:07:44",21483.000,"cc",28416.432,6.00,6,0.100,13815.000,0.200,5841.000,0.300,1186.000,0.500,584.000,1.000,57.000,5.000,0
"03/07/08","20:07:50",21188.000,"cc",28318.416,6.00,6,0.100,13631.000,0.200,5763.000,0.300,1153.000,0.500,578.000,1.000,63.000,5.000,0
"03/07/08","20:07:56",21175.000,"cc",28346.520,6.00,6,0.100,13646.000,0.200,5808.000,0.300,1141.000,0.500,533.000,1.000,47.000,5.000,0
"03/07/08","20:08:02",21184.000,"cc",28233.922,6.00,6,0.100,13701.000,0.200,5771.000,0.300,1202.000,0.500,469.000,1.000,41.000,5.000,0
"03/07/08","20:08:08",21565.000,"cc",28322.391,6.00,6,0.100,13878.000,0.200,5856.000,0.300,1202.000,0.500,585.000,1.000,44.000,5.000,0
"03/07/08","20:08:14",21136.000,"cc",28297.070,6.00,6,0.100,13614.000,0.200,5737.000,0.300,1230.000,0.500,511.000,1.000,44.000,5.000,0
"03/07/08","20:08:20",21343.000,"cc",28236.846,6.00,6,0.100,13729.000,0.200,5831.000,0.300,1237.000,0.500,508.000,1.000,38.000,5.000,0
"03/07/08","20:08:26",21140.000,"cc",28390.438,6.00,6,0.100,13484.000,0.200,5790.000,0.300,1228.000,0.500,579.000,1.000,59.000,5.000,0
"03/07/08","20:08:32",21392.000,"cc",28275.547,6.00,6,0.100,13927.000,0.200,5730.000,0.300,1185.000,0.500,507.000,1.000,43.000,5.000,0
"03/07/08","20:08:38",21264.000,"cc",28257.412,6.00,6,0.100,14017.000,0.200,5725.000,0.300,1062.000,0.500,436.000,1.000,24.000,5.000,0
"03/07/08","20:08:44",21008.000,"cc",28210.219,6.00,6,0.100,13727.000,0.200,5744.000,0.300,1097.000,0.500,409.000,1.000,31.000,5.000,0
"03/07/08","20:08:50",21282.000,"cc",28367.693,6.00,6,0.100,13765.000,0.200,5934.000,0.300,1127.000,0.500,429.000,1.000,27.000,5.000,0
"03/07/08","20:08:56",21910.000,"cc",28410.565,6.00,6,0.100,14171.000,0.200,6050.000,0.300,1158.000,0.500,481.000,1.000,50.000,5.000,0
"03/07/08","20:09:02",21686.000,"cc",28360.652,6.00,6,0.100,14089.000,0.200,5986.000,0.300,1136.000,0.500,446.000,1.000,29.000,5.000,0
"03/07/08","20:09:08",21688.000,"cc",28325.313,6.00,6,0.100,13972.000,0.200,6042.000,0.300,1162.000,0.500,474.000,1.000,38.000,5.000,0
"03/07/08","20:09:14",21439.000,"cc",28202.750,6.00,6,0.100,13904.000,0.200,5893.000,0.300,1177.000,0.500,446.000,1.000,19.000,5.000,0
"03/07/08","20:09:20",21857.000,"cc",28354.912,6.00,6,0.100,14053.000,0.200,5928.000,0.300,1254.000,0.500,574.000,1.000,48.000,5.000,0
"03/07/08","20:09:26",22102.000,"cc",28346.363,6.00,6,0.100,14290.000,0.200,5959.000,0.300,1254.000,0.500,550.000,1.000,49.000,5.000,0
"03/07/08","20:09:32",22078.000,"cc",28281.342,6.00,6,0.100,14317.000,0.200,5972.000,0.300,1254.000,0.500,512.000,1.000,23.000,5.000,0
"03/07/08","20:09:38",21724.000,"cc",28279.506,6.00,6,0.100,13964.000,0.200,5981.000,0.300,1194.000,0.500,543.000,1.000,42.000,5.000,0
"03/07/08","20:09:44",21748.000,"cc",28350.848,6.00,6,0.100,14134.000,0.200,5921.000,0.300,1185.000,0.500,472.000,1.000,36.000,5.000,0
"03/07/08","20:09:50",21398.000,"cc",28296.025,6.00,6,0.100,13915.000,0.200,5892.000,0.300,1121.000,0.500,450.000,1.000,20.000,5.000,0
"03/07/08","20:09:56",21838.000,"cc",28318.506,6.00,6,0.100,14092.000,0.200,5904.000,0.300,1303.000,0.500,506.000,1.000,33.000,5.000,0
"03/07/08","20:10:02",22150.000,"cc",28326.430,6.00,6,0.100,14333.000,0.200,5927.000,0.300,1298.000,0.500,544.000,1.000,48.000,5.000,0
"03/07/08","20:10:08",21814.000,"cc",28345.117,6.00,6,0.100,14092.000,0.200,5847.000,0.300,1280.000,0.500,547.000,1.000,48.000,5.000,0
"03/07/08","20:10:14",22096.000,"cc",28321.658,6.00,6,0.100,14150.000,0.200,6051.000,0.300,1288.000,0.500,568.000,1.000,39.000,5.000,0
"03/07/08","20:10:20",21477.000,"cc",28243.299,6.00,6,0.100,13921.000,0.200,5894.000,0.300,1208.000,0.500,416.000,1.000,38.000,5.000,0
"03/07/08","20:10:26",21952.000,"cc",28369.555,6.00,6,0.100,14313.000,0.200,5991.000,0.300,1162.000,0.500,461.000,1.000,25.000,5.000,0
"03/07/08","20:10:32",22018.000,"cc",28358.764,6.00,6,0.100,14193.000,0.200,6031.000,0.300,1220.000,0.500,533.000,1.000,41.000,5.000,0
"03/07/08","20:10:38",21809.000,"cc",28265.190,6.00,6,0.100,14054.000,0.200,5957.000,0.300,1209.000,0.500,537.000,1.000,52.000,5.000,0
"03/07/08","20:10:44",21959.000,"cc",28314.951,6.00,6,0.100,14135.000,0.200,6054.000,0.300,1231.000,0.500,503.000,1.000,36.000,5.000,0
"03/07/08","20:10:50",21930.000,"cc",28299.092,6.00,6,0.100,14298.000,0.200,6018.000,0.300,1175.000,0.500,419.000,1.000,20.000,5.000,0
"03/07/08","20:10:56",22507.000,"cc",28412.732,6.00,6,0.100,14449.000,0.200,6119.000,0.300,1337.000,0.500,554.000,1.000,48.000,5.000,0
"03/07/08","20:11:02",21555.000,"cc",28311.910,6.00,6,0.100,13960.000,0.200,5831.000,0.300,1189.000,0.500,536.000,1.000,39.000,5.000,0
"03/07/08","20:11:08",22154.000,"cc",28254.576,6.00,6,0.100,14229.000,0.200,6109.000,0.300,1243.000,0.500,540.000,1.000,33.000,5.000,0
"03/07/08","20:11:14",22219.000,"cc",28362.945,6.00,6,0.100,14132.000,0.200,6176.000,0.300,1341.000,0.500,541.000,1.000,29.000,5.000,0
"03/07/08","20:11:20",21730.000,"cc",28354.467,6.00,6,0.100,14140.000,0.200,5916.000,0.300,1132.000,0.500,496.000,1.000,46.000,5.000,0
"03/07/08","20:11:26",21803.000,"cc",28318.170,6.00,6,0.100,13989.000,0.200,5952.000,0.300,1232.000,0.500,585.000,1.000,45.000,5.000,0
"03/07/08","20:11:32",21204.000,"cc",28351.578,6.00,6,0.100,13559.000,0.200,5749.000,0.300,1243.000,0.500,583.000,1.000,70.000,5.000,0
"03/07/08","20:11:38",21476.000,"cc",28285.096,6.00,6,0.100,13813.000,0.200,5885.000,0.300,1183.000,0.500,540.000,1.000,55.000,5.000,0
"03/07/08","20:11:44",21741.000,"cc",28287.602,6.00,6,0.100,13892.000,0.200,5913.000,0.300,1267.000,0.500,618.000,1.000,51.000,5.000,0
"03/07/08","20:11:50",21826.000,"cc",28333.365,6.00,6,0.100,14000.000,0.200,5986.000,0.300,1238.000,0.500,557.000,1.000,45.000,5.000,0
"03/07/08","20:11:56",21666.000,"cc",28316.313,6.00,6,0.100,13913.000,0.200,5983.000,0.300,1217.000,0.500,510.000,1.000,43.000,5.000,0
"03/07/08","20:12:02",21882.000,"cc",28242.061,6.00,6,0.100,13962.000,0.200,5985.000,0.300,1256.000,0.500,612.000,1.000,67.000,5.000,0
"03/07/08","20:12:08",22213.000,"cc",28330.707,6.00,6,0.100,14314.000,0.200,6056.000,0.300,1256.000,0.500,539.000,1.000,48.000,5.000,0
"03/07/08","20:12:14",22443.000,"cc",28310.082,6.00,6,0.100,14470.000,0.200,6084.000,0.300,1277.000,0.500,564.000,1.000,48.000,5.000,0
"03/07/08","20:12:20",22122.000,"cc",28187.772,6.00,6,0.100,14269.000,0.200,6066.000,0.300,1275.000,0.500,483.000,1.000,29.000,5.000,0
"03/07/08","20:12:26",22138.000,"cc",28369.775,6.00,6,0.100,14311.000,0.200,5959.000,0.300,1269.000,0.500,560.000,1.000,39.000,5.000,0
"03/07/08","20:12:32",21760.000,"cc",28345.340,6.00,6,0.100,14120.000,0.200,5820.000,0.300,1246.000,0.500,524.000,1.000,50.000,5.000,0
"03/07/08","20:12:38",21746.000,"cc",28226.188,6.00,6,0.100,13982.000,0.200,5927.000,0.300,1290.000,0.500,509.000,1.000,38.000,5.000,0
"03/07/08","20:12:44",22320.000,"cc",28308.133,6.00,6,0.100,14418.000,0.200,6091.000,0.300,1210.000,0.500,563.000,1.000,38.000,5.000,0
"03/07/08","20:12:50",22266.000,"cc",28384.346,6.00,6,0.100,14412.000,0.200,6050.000,0.300,1258.000,0.500,517.000,1.000,29.000,5.000,0
"03/07/08","20:12:56",22141.000,"cc",28348.496,6.00,6,0.100,14296.000,0.200,6106.000,0.300,1185.000,0.500,517.000,1.000,37.000,5.000,0
"03/07/08","20:13:02",22131.000,"cc",28275.172,6.00,6,0.100,14232.000,0.200,6072.000,0.300,1211.000,0.500,571.000,1.000,45.000,5.000,0
"03/07/08","20:13:08",22174.000,"cc",28398.190,6.00,6,0.100,14074.000,0.200,6106.000,0.300,1332.000,0.500,607.000,1.000,55.000,5.000,0
"03/07/08","20:13:14",21985.000,"cc",28256.307,6.00,6,0.100,14026.000,0.200,6047.000,0.300,1293.000,0.500,572.000,1.000,47.000,5.000,0
"03/07/08","20:13:20",21748.000,"cc",28281.699,6.00,6,0.100,13824.000,0.200,5918.000,0.300,1316.000,0.500,631.000,1.000,59.000,5.000,0
"03/07/08","20:13:26",21620.000,"cc",28294.940,6.00,6,0.100,13941.000,0.200,5775.000,0.300,1176.000,0.500,664.000,1.000,64.000,5.000,0
"03/07/08","20:13:32",21365.000,"cc",28325.967,6.00,6,0.100,13684.000,0.200,5761.000,0.300,1256.000,0.500,601.000,1.000,63.000,5.000,0
"03/07/08","20:13:38",21647.000,"cc",28404.158,6.00,6,0.100,13750.000,0.200,5924.000,0.300,1274.000,0.500,610.000,1.000,89.000,5.000,0
"03/07/08","20:13:44",21815.000,"cc",28300.074,6.00,6,0.100,13926.000,0.200,5823.000,0.300,1337.000,0.500,652.000,1.000,77.000,5.000,0
"03/07/08","20:13:50",21746.000,"cc",28348.600,6.00,6,0.100,13900.000,0.200,5674.000,0.300,1341.000,0.500,751.000,1.000,80.000,5.000,0
"03/07/08","20:13:56",20755.000,"cc",28258.500,6.00,6,0.100,13266.000,0.200,5657.000,0.300,1132.000,0.500,631.000,1.000,69.000,5.000,0
"03/07/08","20:14:02",20794.000,"cc",28274.301,6.00,6,0.100,13071.000,0.200,5770.000,0.300,1222.000,0.500,657.000,1.000,74.000,5.000,0
"03/07/08","20:14:08",20434.000,"cc",28298.123,6.00,6,0.100,12977.000,0.200,5559.000,0.300,1217.000,0.500,603.000,1.000,78.000,5.000,0
"03/07/08","20:14:14",21703.000,"cc",28361.416,6.00,6,0.100,13784.000,0.200,5723.000,0.300,1293.000,0.500,793.000,1.000,110.000,5.000,0
"03/07/08","20:14:20",22160.000,"cc",28316.129,6.00,6,0.100,13948.000,0.200,5918.000,0.300,1353.000,0.500,811.000,1.000,130.000,5.000,0
"03/07/08","20:14:26",21066.000,"cc",28297.115,6.00,6,0.100,13585.000,0.200,5614.000,0.300,1201.000,0.500,593.000,1.000,73.000,5.000,0
"03/07/08","20:14:32",21065.000,"cc",28350.250,6.00,6,0.100,13624.000,0.200,5633.000,0.300,1146.000,0.500,595.000,1.000,67.000,5.000,0
"03/07/08","20:14:38",21015.000,"cc",28365.859,6.00,6,0.100,13397.000,0.200,5729.000,0.300,1210.000,0.500,603.000,1.000,76.000,5.000,0
"03/07/08","20:14:44",21385.000,"cc",28285.449,6.00,6,0.100,13593.000,0.200,5748.000,0.300,1235.000,0.500,716.000,1.000,93.000,5.000,0
"03/07/08","20:14:50",21138.000,"cc",28345.449,6.00,6,0.100,13486.000,0.200,5709.000,0.300,1229.000,0.500,634.000,1.000,80.000,5.000,0
"03/07/08","20:14:56",21992.000,"cc",28350.020,6.00,6,0.100,13975.000,0.200,5773.000,0.300,1398.000,0.500,748.000,1.000,98.000,5.000,0
"03/07/08","20:15:02",21764.000,"cc",28258.836,6.00,6,0.100,13705.000,0.200,5905.000,0.300,1292.000,0.500,756.000,1.000,106.000,5.000,0
"03/07/08","20:15:08",21745.000,"cc",28241.617,6.00,6,0.100,13875.000,0.200,5853.000,0.300,1241.000,0.500,699.000,1.000,77.000,5.000,0
"03/07/08","20:15:14",21484.000,"cc",28447.895,6.00,6,0.100,13746.000,0.200,5703.000,0.300,1246.000,0.500,695.000,1.000,94.000,5.000,0
"03/07/08","20:15:20",21629.000,"cc",28299.832,6.00,6,0.100,13775.000,0.200,5895.000,0.300,1254.000,0.500,630.000,1.000,75.000,5.000,0
"03/07/08","20:15:26",21466.000,"cc",28323.416,6.00,6,0.100,13638.000,0.200,5772.000,0.300,1329.000,0.500,658.000,1.000,69.000,5.000,0
"03/07/08","20:15:32",21397.000,"cc",28286.422,6.00,6,0.100,13729.000,0.200,5714.000,0.300,1203.000,0.500,679.000,1.000,72.000,5.000,0
"03/07/08","20:15:38",21298.000,"cc",28360.924,6.00,6,0.100,13730.000,0.200,5567.000,0.300,1196.000,0.500,721.000,1.000,84.000,5.000,0
"03/07/08","20:15:44",21391.000,"cc",28288.037,6.00,6,0.100,13667.000,0.200,5692.000,0.300,1278.000,0.500,672.000,1.000,82.000,5.000,0
"03/07/08","20:15:50",22058.000,"cc",28406.107,6.00,6,0.100,14184.000,0.200,5768.000,0.300,1281.000,0.500,728.000,1.000,97.000,5.000,0
"03/07/08","20:15:56",21162.000,"cc",28378.668,6.00,6,0.100,13534.000,0.200,5704.000,0.300,1177.000,0.500,649.000,1.000,98.000,5.000,0
"03/07/08","20:16:02",21272.000,"cc",28199.467,6.00,6,0.100,13703.000,0.200,5574.000,0.300,1239.000,0.500,662.000,1.000,94.000,5.000,0
"03/07/08","20:16:08",21539.000,"cc",28365.201,6.00,6,0.100,13812.000,0.200,5710.000,0.300,1238.000,0.500,689.000,1.000,90.000,5.000,0
"03/07/08","20:16:14",21541.000,"cc",28277.494,6.00,6,0.100,13755.000,0.200,5761.000,0.300,1268.000,0.500,664.000,1.000,93.000,5.000,0
"03/07/08","20:16:20",22378.000,"cc",28298.611,6.00,6,0.100,14235.000,0.200,6085.000,0.300,1294.000,0.500,685.000,1.000,79.000,5.000,0
"03/07/08","20:16:26",21888.000,"cc",28276.898,6.00,6,0.100,13931.000,0.200,5920.000,0.300,1306.000,0.500,660.000,1.000,71.000,5.000,0
"03/07/08","20:16:32",21755.000,"cc",28304.852,6.00,6,0.100,13937.000,0.200,5891.000,0.300,1211.000,0.500,656.000,1.000,60.000,5.000,0
"03/07/08","20:16:38",21628.000,"cc",28277.822,6.00,6,0.100,13830.000,0.200,5894.000,0.300,1245.000,0.500,599.000,1.000,60.000,5.000,0